sat.trackr.live / text

‹ back to catalog

STARLINK-4617

NORAD 53675 · 2022-105AD

PAYLOAD ACTIVE UNKNOWN

§ Identity

Operator
Country
US
Launch date
2022-08-31
Launch site
AFWTR
Launch vehicle
Mass (kg)
RCS (m²)

Purposes: comms

External: N2YO · Heavens-Above · Gunter

§ Orbital elements

Epoch: 2026-05-25T02:11:04.769088Z

Period
95.64 min
Inclination
97.4532°
Eccentricity
0.0001928
Mean motion
15.05569238 rev/d
Perigee alt
548.4 km
Apogee alt
551.1 km
Semi-major
6,927.9 km
B*
1.1873e-3
RAAN
26.2148°
Arg perigee
89.6198°
Mean anomaly
270.5250°
Rev number
20,480

§ Raw data

STARLINK-46171 53675U 22105AD  26145.09102742  .00017077  00000+0  11873-2 0  99922 53675  97.4532  26.2148 0001928  89.6198 270.5250 15.05569238204801

JSON: /api/v1/satellites/53675 · /tle

For live sub-satellite position, see the globe view (requires WebGL).

§ Visibility from observer

Set your observer location to see the next 7 days of passes ≥ 10°. The values pass through the URL so the page stays shareable.

No JS? Fill the form by hand. The geolocation button needs JavaScript.